GLO1026 SBSP-SBRJ

Flight info

Callsign GLO1026
Flight time 0h 40m
Altitude 29000
Route NIBRU UZ171 KEVUN
Aircraft B737/M-SDE2E3FGHIRWXY/LB1

Departure

Time 2026-05-04 19:36
Airport Congonhas–Deputado Freitas Nobre Airport (SBSP)

Arrival

Time 2026-05-04 20:17
Airport Santos Dumont Airport (SBRJ)
Time Latitude Longitude Altitude Speed Heading
2026-05-04 19:34 -23.63503 -46.65174 2599 ft 0 kts 79°
2026-05-04 19:35 -23.63502 -46.65171 2599 ft 2 kts 70°
2026-05-04 19:35 -23.63460 -46.65141 2599 ft 10 kts 27°
2026-05-04 19:35 -23.63401 -46.65132 2602 ft 10 kts 327°
2026-05-04 19:35 -23.63220 -46.65262 2609 ft 69 kts 327°
2026-05-04 19:36 -23.62572 -46.65715 2606 ft 149 kts 328°
2026-05-04 19:36 -23.61563 -46.66407 2992 ft 181 kts 324°
2026-05-04 19:36 -23.60499 -46.67249 3898 ft 193 kts 323°
2026-05-04 19:36 -23.59232 -46.67793 4634 ft 210 kts 360°
2026-05-04 19:37 -23.57814 -46.67279 5219 ft 230 kts 33°
2026-05-04 19:37 -23.56731 -46.65880 5466 ft 255 kts 64°
2026-05-04 19:37 -23.56471 -46.63930 5534 ft 277 kts 99°
2026-05-04 19:37 -23.57153 -46.61892 6135 ft 301 kts 118°
2026-05-04 19:38 -23.58356 -46.59972 6249 ft 305 kts 127°
2026-05-04 19:38 -23.59618 -46.58151 7085 ft 304 kts 127°
2026-05-04 19:38 -23.60863 -46.56278 8342 ft 298 kts 126°
2026-05-04 19:38 -23.62186 -46.54545 9459 ft 298 kts 136°
2026-05-04 19:39 -23.63673 -46.53006 10438 ft 301 kts 139°
2026-05-04 19:39 -23.65264 -46.51408 10933 ft 324 kts 139°
2026-05-04 19:39 -23.66959 -46.49665 11410 ft 342 kts 138°
2026-05-04 19:39 -23.68686 -46.47851 12255 ft 347 kts 138°
2026-05-04 19:40 -23.70253 -46.45827 13156 ft 354 kts 120°
2026-05-04 19:40 -23.71036 -46.43270 14073 ft 361 kts 98°
2026-05-04 19:40 -23.70964 -46.40517 14880 ft 367 kts 83°
2026-05-04 19:40 -23.70578 -46.37729 15656 ft 374 kts 81°
2026-05-04 19:41 -23.70135 -46.34912 16415 ft 381 kts 80°
2026-05-04 19:41 -23.69682 -46.32036 17201 ft 387 kts 81°
2026-05-04 19:41 -23.69235 -46.29115 17987 ft 393 kts 81°
2026-05-04 19:41 -23.68797 -46.26147 18703 ft 399 kts 81°
2026-05-04 19:42 -23.68361 -46.23135 19403 ft 404 kts 81°
2026-05-04 19:42 -23.67926 -46.20093 20131 ft 408 kts 82°
2026-05-04 19:42 -23.67486 -46.17014 20843 ft 413 kts 82°
2026-05-04 19:42 -23.67039 -46.13902 21532 ft 418 kts 82°
2026-05-04 19:43 -23.66589 -46.10763 22231 ft 422 kts 82°
2026-05-04 19:43 -23.66132 -46.07585 22900 ft 426 kts 82°
2026-05-04 19:43 -23.65671 -46.04375 23586 ft 431 kts 82°
2026-05-04 19:43 -23.65204 -46.01130 24147 ft 435 kts 82°
2026-05-04 19:44 -23.64732 -45.97848 24691 ft 440 kts 82°
2026-05-04 19:44 -23.64254 -45.94537 25250 ft 444 kts 82°
2026-05-04 19:44 -23.63771 -45.91194 25801 ft 448 kts 82°
2026-05-04 19:44 -23.63283 -45.87822 26329 ft 452 kts 82°
2026-05-04 19:45 -23.62790 -45.84423 26912 ft 455 kts 82°
2026-05-04 19:45 -23.62296 -45.81022 27636 ft 454 kts 82°
2026-05-04 19:45 -23.61803 -45.77633 28383 ft 452 kts 82°
2026-05-04 19:45 -23.61309 -45.74246 29009 ft 453 kts 82°
2026-05-04 19:46 -23.60813 -45.70844 29101 ft 453 kts 82°
2026-05-04 19:46 -23.59826 -45.64089 29127 ft 453 kts 82°
2026-05-04 19:47 -23.58829 -45.57291 29134 ft 455 kts 82°
2026-05-04 19:47 -23.57827 -45.50476 29141 ft 455 kts 82°
2026-05-04 19:48 -23.56713 -45.43681 29131 ft 455 kts 78°
2026-05-04 19:48 -23.55274 -45.36979 29135 ft 453 kts 77°
2026-05-04 19:49 -23.53804 -45.30310 29131 ft 451 kts 77°
2026-05-04 19:49 -23.52373 -45.23661 29140 ft 450 kts 77°
2026-05-04 19:50 -23.50969 -45.17056 29155 ft 451 kts 77°
2026-05-04 19:50 -23.49551 -45.10400 29140 ft 451 kts 77°
2026-05-04 19:51 -23.48124 -45.03717 28495 ft 454 kts 77°
2026-05-04 19:51 -23.47410 -45.00379 27962 ft 450 kts 77°
2026-05-04 19:51 -23.46702 -44.97077 27431 ft 445 kts 77°
2026-05-04 19:51 -23.45999 -44.93811 26920 ft 441 kts 77°
2026-05-04 19:52 -23.45290 -44.90589 26469 ft 435 kts 76°
2026-05-04 19:52 -23.44581 -44.87404 25957 ft 431 kts 76°
2026-05-04 19:52 -23.43876 -44.84246 25448 ft 428 kts 76°
2026-05-04 19:52 -23.43176 -44.81110 24937 ft 425 kts 76°
2026-05-04 19:53 -23.42480 -44.77989 24403 ft 423 kts 76°
2026-05-04 19:53 -23.41788 -44.74884 23876 ft 421 kts 76°
2026-05-04 19:53 -23.41099 -44.71794 23287 ft 419 kts 76°
2026-05-04 19:53 -23.40415 -44.68726 22726 ft 415 kts 76°
2026-05-04 19:54 -23.39735 -44.65683 22190 ft 411 kts 76°
2026-05-04 19:54 -23.39063 -44.62672 21671 ft 408 kts 76°
2026-05-04 19:54 -23.38396 -44.59688 21160 ft 404 kts 76°
2026-05-04 19:54 -23.37733 -44.56729 20648 ft 401 kts 76°
2026-05-04 19:55 -23.37075 -44.53789 20141 ft 398 kts 76°
2026-05-04 19:55 -23.36422 -44.50876 19635 ft 395 kts 76°
2026-05-04 19:55 -23.35773 -44.47984 19110 ft 393 kts 76°
2026-05-04 19:55 -23.35134 -44.45140 18600 ft 391 kts 76°
2026-05-04 19:56 -23.34477 -44.42275 18034 ft 389 kts 73°
2026-05-04 19:56 -23.33522 -44.39549 17548 ft 383 kts 65°
2026-05-04 19:56 -23.32392 -44.36945 17048 ft 379 kts 63°
2026-05-04 19:56 -23.31230 -44.34381 16536 ft 376 kts 63°
2026-05-04 19:57 -23.30082 -44.31840 16031 ft 373 kts 63°
2026-05-04 19:57 -23.28959 -44.29313 15527 ft 370 kts 64°
2026-05-04 19:57 -23.27856 -44.26793 15002 ft 368 kts 64°
2026-05-04 19:57 -23.26768 -44.24283 14492 ft 366 kts 65°
2026-05-04 19:58 -23.25689 -44.21783 13995 ft 364 kts 65°
2026-05-04 19:58 -23.24618 -44.19297 13420 ft 362 kts 65°
2026-05-04 19:58 -23.23556 -44.16829 12901 ft 359 kts 65°
2026-05-04 19:58 -23.22504 -44.14386 12387 ft 356 kts 65°
2026-05-04 19:59 -23.21461 -44.11967 11895 ft 352 kts 65°
2026-05-04 19:59 -23.20423 -44.09564 11397 ft 349 kts 65°
2026-05-04 19:59 -23.19388 -44.07196 11065 ft 342 kts 64°
2026-05-04 19:59 -23.18347 -44.04925 10885 ft 331 kts 63°
2026-05-04 20:00 -23.17320 -44.02711 10699 ft 326 kts 63°
2026-05-04 20:00 -23.16299 -44.00505 10530 ft 327 kts 63°
2026-05-04 20:00 -23.15305 -43.98311 10356 ft 319 kts 64°
2026-05-04 20:00 -23.14380 -43.96164 10176 ft 309 kts 65°
2026-05-04 20:01 -23.13493 -43.94074 10009 ft 301 kts 65°
2026-05-04 20:01 -23.12632 -43.92043 9842 ft 293 kts 65°
2026-05-04 20:01 -23.11779 -43.90034 9681 ft 292 kts 65°
2026-05-04 20:01 -23.10923 -43.88024 9535 ft 294 kts 65°
2026-05-04 20:02 -23.10060 -43.86003 9379 ft 296 kts 64°
2026-05-04 20:02 -23.09191 -43.83970 9221 ft 298 kts 64°
2026-05-04 20:02 -23.08316 -43.81928 9058 ft 299 kts 64°
2026-05-04 20:02 -23.07441 -43.79884 8896 ft 298 kts 64°
2026-05-04 20:03 -23.06568 -43.77846 8744 ft 297 kts 64°
2026-05-04 20:03 -23.05699 -43.75820 8577 ft 295 kts 64°
2026-05-04 20:03 -23.04837 -43.73809 8424 ft 292 kts 64°
2026-05-04 20:03 -23.03979 -43.71812 8266 ft 292 kts 64°
2026-05-04 20:04 -23.03123 -43.69822 8094 ft 291 kts 64°
2026-05-04 20:04 -23.02252 -43.67821 7828 ft 294 kts 64°
2026-05-04 20:04 -23.01376 -43.65819 7527 ft 295 kts 63°
2026-05-04 20:04 -23.00496 -43.63811 7190 ft 293 kts 63°
2026-05-04 20:05 -22.99642 -43.61860 6960 ft 287 kts 63°
2026-05-04 20:05 -22.98794 -43.59930 6782 ft 280 kts 63°
2026-05-04 20:05 -22.97957 -43.58029 6623 ft 279 kts 63°
2026-05-04 20:05 -22.97121 -43.56129 6459 ft 280 kts 63°
2026-05-04 20:06 -22.96276 -43.54225 6279 ft 279 kts 62°
2026-05-04 20:06 -22.95443 -43.52328 6134 ft 279 kts 62°
2026-05-04 20:06 -22.94621 -43.50406 5873 ft 285 kts 66°
2026-05-04 20:06 -22.93958 -43.48384 5535 ft 283 kts 69°
2026-05-04 20:07 -22.93356 -43.46402 5166 ft 270 kts 68°
2026-05-04 20:07 -22.92773 -43.44527 4906 ft 255 kts 69°
2026-05-04 20:07 -22.92218 -43.42744 4567 ft 241 kts 69°
2026-05-04 20:07 -22.91829 -43.41048 4393 ft 230 kts 80°
2026-05-04 20:08 -22.91764 -43.39364 4246 ft 217 kts 84°
2026-05-04 20:08 -22.91702 -43.37781 4087 ft 203 kts 85°
2026-05-04 20:08 -22.91634 -43.36292 3948 ft 195 kts 83°
2026-05-04 20:08 -22.91559 -43.34848 3838 ft 189 kts 81°
2026-05-04 20:09 -22.91475 -43.33422 3677 ft 189 kts 83°
2026-05-04 20:09 -22.91395 -43.32059 3597 ft 174 kts 83°
2026-05-04 20:09 -22.91325 -43.30761 3509 ft 171 kts 82°
2026-05-04 20:09 -22.91253 -43.29506 3330 ft 159 kts 84°
2026-05-04 20:10 -22.91183 -43.28349 3225 ft 148 kts 81°
2026-05-04 20:10 -22.91114 -43.27205 3216 ft 155 kts 82°
2026-05-04 20:10 -22.91057 -43.26075 2949 ft 148 kts 84°
2026-05-04 20:10 -22.91018 -43.25016 2828 ft 137 kts 83°
2026-05-04 20:11 -22.90969 -43.24022 2602 ft 125 kts 82°
2026-05-04 20:11 -22.90913 -43.23132 2389 ft 116 kts 81°
2026-05-04 20:11 -22.90833 -43.22219 2290 ft 128 kts 84°
2026-05-04 20:11 -22.90771 -43.21228 2422 ft 133 kts 87°
2026-05-04 20:12 -22.90727 -43.20218 2468 ft 133 kts 86°
2026-05-04 20:12 -22.90673 -43.19215 2398 ft 132 kts 86°
2026-05-04 20:12 -22.90638 -43.18239 2310 ft 128 kts 87°
2026-05-04 20:12 -22.90607 -43.17299 2188 ft 123 kts 88°
2026-05-04 20:13 -22.90579 -43.16353 2098 ft 128 kts 88°
2026-05-04 20:13 -22.90565 -43.15360 2046 ft 133 kts 89°
2026-05-04 20:13 -22.90547 -43.14347 2027 ft 134 kts 87°
2026-05-04 20:13 -22.90424 -43.13368 1946 ft 133 kts 71°
2026-05-04 20:14 -22.90045 -43.12683 1860 ft 133 kts 51°
2026-05-04 20:14 -22.89299 -43.12101 1709 ft 136 kts 27°
2026-05-04 20:14 -22.88354 -43.11938 1451 ft 140 kts 357°
2026-05-04 20:14 -22.87438 -43.12346 1244 ft 148 kts 325°
2026-05-04 20:15 -22.86837 -43.13240 1115 ft 150 kts 292°
2026-05-04 20:15 -22.86618 -43.14327 1134 ft 149 kts 274°
2026-05-04 20:15 -22.86743 -43.15457 1065 ft 153 kts 252°
2026-05-04 20:15 -22.87280 -43.16372 876 ft 143 kts 211°
2026-05-04 20:16 -22.88192 -43.16542 519 ft 134 kts 167°
2026-05-04 20:16 -22.89121 -43.16433 326 ft 132 kts 174°
2026-05-04 20:16 -22.90029 -43.16354 145 ft 129 kts 172°
2026-05-04 20:16 -22.90890 -43.16292 25 ft 115 kts 175°
2026-05-04 20:17 -22.91296 -43.16267 19 ft 13 kts 184°
2026-05-04 20:17 -22.91344 -43.16332 18 ft 11 kts 266°
2026-05-04 20:17 -22.91348 -43.16404 20 ft 8 kts 265°
2026-05-04 20:17 -22.91351 -43.16459 21 ft 5 kts 266°
2026-05-04 20:18 -22.91346 -43.16494 21 ft 5 kts 301°
2026-05-04 20:18 -22.91319 -43.16515 21 ft 5 kts 296°
2026-05-04 20:18 -22.91318 -43.16551 21 ft 5 kts 266°
2026-05-04 20:18 -22.91319 -43.16572 21 ft 1 kts 268°
2026-05-04 20:19 -22.91319 -43.16575 21 ft 0 kts 268°